Location: *
(28.1000°S, 180.0000°W)
Time: 07:53:22
(UTC+00:00)

Daily predictions for brighter satellites

Satellite Brightness Start Highest point End
(mag) Time Altitude Azimuth Time Altitude Azimuth Time Altitude Azimuth
USA 234 4.3 15:37:59 10° ENE 15:42:29 40° E 15:42:29 40° E
CENTAUR R/B 4.3 15:43:34 10° N 15:51:09 37° ENE 15:58:04 10° SE
ATLAS 3B R/B 3.7 15:52:44 37° NNE 15:54:38 44° ENE 16:01:28 10° SE
CZ-4B R/B 4.3 16:02:28 10° NE 16:07:45 42° ESE 16:08:02 41° ESE
CZ-4C R/B 4.3 16:12:00 13° NNE 16:12:00 13° NNE 16:12:32 10° NNE
Okean O Rocket 4.2 16:05:39 10° NE 16:06:38 16° NE 16:06:38 16° NE
ATLAS 5 CENTAUR R/B 4.3 16:39:39 18° S 16:39:39 18° S 16:41:25 10° S
Cosmos 1727 Rocket 4.0 16:34:53 27° S 16:38:26 76° E 16:44:37 10° N
Lacrosse 5 3.9 16:44:20 17° S 16:44:20 17° S 16:45:42 10° SSE
Cosmos 1339 Rocket 4.5 16:43:46 61° NW 16:43:46 61° NW 16:49:13 10° N
FENGYUN 3A 4.5 16:38:59 10° NNE 16:44:09 49° ESE 16:49:21 10° S
NOAA 6 4.0 16:40:50 10° NNE 16:45:57 79° ESE 16:47:12 52° S
CZ-3 R/B 3.9 16:41:03 34° W 16:52:09 50° NW 17:01:19 10° NNE
NOSS 3-2 (C) 4.2 16:55:41 34° WNW 16:59:17 54° WSW 17:07:01 10° SSE
Cosmos 1821 Rocket 3.9 16:59:28 10° N 17:05:52 82° W 17:12:16 10° S
ALOS 2.2 17:01:39 10° NNE 17:06:20 87° ESE 17:09:19 23° S
Centaur AC-42 4.3 16:31:11 10° WNW 17:06:54 51° N 17:12:27 10° ENE
GPS 2-12 Rocket1 4.4 17:07:08 26° NNW 17:08:23 30° N 17:12:36 10° ENE
TRAILBLAZER 4.4 17:08:22 65° WSW 17:08:25 65° WSW 17:12:50 10° SSE
ATLAS 3B CENTAUR R/B 1.9 17:12:44 31° NE 17:12:44 31° NE 17:14:39 10° ENE
Cosmos 389 Rocket 3.5 17:09:58 10° N 17:13:27 48° E 17:16:57 10° SSE
Cosmos 1602 Rocket 3.8 17:09:21 10° N 17:13:50 74° E 17:18:21 10° S
Meteor 2-5 Rocket 3.6 17:09:40 10° NNW 17:15:11 74° W 17:20:51 10° S
Delta 2 Rocket 3.7 17:15:06 47° W 17:16:10 61° NNW 17:20:29 10° NE
Cosmos 1674 2.5 17:13:26 10° N 17:17:17 76° W 17:21:11 10° S
METEOR-M 4.1 17:12:00 10° N 17:17:18 64° W 17:21:42 16° SSW
Meteor 1-4 Rocket 3.6 17:15:07 10° N 17:18:47 49° E 17:22:30 10° SSE
Cosmos 1626 Rocket 3.4 17:15:43 10° NNW 17:20:10 71° W 17:24:38 10° S
Meteor 1-16 Rocket 4.0 17:16:03 12° SSW 17:21:10 66° W 17:26:25 10° N
Feng Yun 1-1 Rocket 4.4 17:19:50 10° NNE 17:25:36 85° ESE 17:31:34 10° SSW
USA 234 4.0 17:21:27 10° N 17:27:12 33° NW 17:29:52 25° W
SEDSat Delta rocket 3.3 17:25:41 33° WSW 17:28:08 89° NNW 17:32:55 10° ENE
DELTA 2 R/B(2) 4.4 17:35:58 42° SW 17:36:17 43° SSW 17:38:53 10° SE
Cosmos 1626 3.9 17:33:02 10° NNE 17:36:25 34° E 17:39:51 10° SSE
Meteor 1-24 Rocket 3.5 17:32:14 10° NNW 17:37:29 65° W 17:42:54 10° S
Cosmos 1437 Rocket 3.9 17:36:10 10° N 17:40:08 50° E 17:44:07 10° SSE
Cosmos 2058 Rocket 3.9 17:40:12 25° WSW 17:41:25 29° W 17:45:10 10° NNW
CENTAUR R/B 3.4 17:34:03 10° NW 17:41:47 41° WSW 17:48:44 10° SSE
Intelsat 5-1 Rocket 2.0 17:40:24 21° NW 17:41:47 35° N 17:43:59 10° ENE
Shenzhou-11 Module 4.2 17:45:10 12° NW 17:45:10 12° NW 17:46:14 10° NNW
ATLAS 3B R/B 3.5 17:40:13 14° WNW 17:45:26 30° SW 17:51:46 10° S
Okean O Rocket 3.8 17:43:57 10° NW 17:44:06 10° WNW 17:44:06 10° WNW
Cosmos 1238 4.3 17:43:57 10° SSW 17:47:05 66° W 17:50:41 10° N
Cosmos 1697 Rocket 3.7 17:44:41 10° N 17:50:09 51° ENE 17:55:38 10° SSE
Cosmos 2123 Rocket 4.0 17:44:41 10° S 17:51:03 89° E 17:57:16 10° N
Cosmos 1908 3.3 17:50:20 10° SSW 17:54:14 55° W 17:58:04 10° N
SKYMED 2 3.9 17:51:01 10° SSE 17:55:25 73° ENE 17:59:45 10° N
Cosmos 1980 Rocket 4.4 17:53:01 10° NNE 17:57:49 29° ENE 18:02:41 10° SE
Cosmos 1953 Rocket 4.4 17:56:23 10° N 18:00:40 56° E 18:05:04 10° SSE
Longmarch 3A Rocket 3.7 17:35:12 10° W 18:01:13 83° N 18:05:27 10° E
Cosmos 2278 4.4 17:56:50 10° N 18:02:22 59° ENE 18:07:59 10° SSE
BREEZE-M DEB (TANK) 2.9 18:00:51 10° NNW 18:03:10 60° NE 18:07:32 10° SE
SL-14 R/B 3.3 17:59:15 10° NNW 18:03:14 63° W 18:07:18 10° S
Cosmos 1300 3.5 18:04:55 10° S 18:08:44 54° E 18:12:28 10° NNE
Cosmos 1726 3.4 18:07:49 10° SW 18:10:40 21° W 18:13:30 10° NW
Cosmos 1812 Rocket 3.7 18:07:13 10° SSW 18:11:35 53° W 18:15:54 10° N
H-2A R/B 2.7 18:08:48 10° N 18:12:26 57° W 18:16:07 10° SSW
Cosmos 1656 3.9 18:09:01 10° NW 18:14:24 49° WSW 18:19:48 10° S
Cosmos 2227 Rocket 3.0 18:17:41 10° S 18:23:16 54° ESE 18:28:46 10° NE
Cosmos 2056 Rocket 4.0 18:18:48 10° SW 18:23:33 38° W 18:28:13 10° NNW
